Hourly Weather Klaki

Today, 25 July, Sunday

Time Temperature Precipitation Wind Pressure Humidity
00:00 +19°C° 0 mm 3 mps 750 mmHg 68%
01:00 +19°C° 0 mm 3 mps 749 mmHg 66%
02:00 +19°C° 0 mm 3 mps 749 mmHg 66%
03:00 +19°C° 0 mm 3 mps 749 mmHg 66%
04:00 +19°C° 0 mm 3 mps 749 mmHg 67%
05:00 +20°C° 0 mm 3 mps 749 mmHg 68%
06:00 +20°C° 0 mm 3 mps 749 mmHg 69%
07:00 +21°C° 0 mm 4 mps 749 mmHg 69%
08:00 +23°C° 0 mm 4 mps 749 mmHg 64%
09:00 +25°C° 0 mm 4 mps 749 mmHg 60%
10:00 +27°C° 0 mm 4 mps 749 mmHg 55%
11:00 +28°C° 0 mm 4 mps 749 mmHg 50%
12:00 +29°C° 0 mm 4 mps 749 mmHg 45%
13:00 +30°C° 0 mm 3 mps 749 mmHg 41%
14:00 +30°C° 0 mm 3 mps 749 mmHg 43%
15:00 +30°C° 0 mm 3 mps 749 mmHg 45%
16:00 +29°C° 0 mm 3 mps 748 mmHg 48%
17:00 +28°C° 0 mm 3 mps 748 mmHg 51%
18:00 +26°C° 0 mm 3 mps 748 mmHg 54%
19:00 +25°C° 0 mm 3 mps 749 mmHg 58%
20:00 +24°C° 0 mm 3 mps 749 mmHg 61%
21:00 +22°C° 0 mm 3 mps 749 mmHg 65%
22:00 +21°C° 0 mm 2 mps 749 mmHg 68%
23:00 +21°C° 0 mm 3 mps 749 mmHg 70%

Tomorrow, 26 July, Monday

Time Temperature Precipitation Wind Pressure Humidity
00:00 +21°C° 0 mm 3 mps 749 mmHg 72%
01:00 +21°C° 0 mm 3 mps 749 mmHg 73%
02:00 +20°C° 0.2 mm 4 mps 748 mmHg 76%
03:00 +20°C° 0.2 mm 4 mps 748 mmHg 79%
04:00 +19°C° 0.2 mm 5 mps 748 mmHg 82%
05:00 +20°C° 0.1 mm 5 mps 748 mmHg 78%
06:00 +21°C° 0.1 mm 5 mps 748 mmHg 75%
07:00 +22°C° 0.1 mm 5 mps 748 mmHg 71%
08:00 +25°C° 0 mm 5 mps 748 mmHg 65%
09:00 +26°C° 0 mm 6 mps 748 mmHg 60%
10:00 +28°C° 0 mm 6 mps 748 mmHg 54%
11:00 +28°C° 0 mm 5 mps 748 mmHg 53%
12:00 +29°C° 0 mm 5 mps 747 mmHg 53%
13:00 +29°C° 0 mm 4 mps 747 mmHg 52%
14:00 +28°C° 0.2 mm 4 mps 747 mmHg 56%
15:00 +28°C° 0.2 mm 4 mps 747 mmHg 60%
16:00 +27°C° 0.2 mm 4 mps 747 mmHg 64%
17:00 +26°C° 3.5 mm 3 mps 747 mmHg 74%
18:00 +24°C° 3.5 mm 3 mps 747 mmHg 84%
19:00 +21°C° 3.5 mm 3 mps 747 mmHg 94%
20:00 +21°C° 0.4 mm 2 mps 747 mmHg 95%
21:00 +20°C° 0.4 mm 2 mps 747 mmHg 96%
22:00 +20°C° 0.4 mm 2 mps 747 mmHg 97%
23:00 +20°C° 0.3 mm 2 mps 747 mmHg 97%

Day after tomorrow, 27 July, Tuesday

Time Temperature Precipitation Wind Pressure Humidity
00:00 +20°C° 0.3 mm 2 mps 747 mmHg 97%
01:00 +20°C° 0.3 mm 1 mps 747 mmHg 97%
02:00 +20°C° 0 mm 1 mps 747 mmHg 97%
03:00 +20°C° 0 mm 1 mps 747 mmHg 96%
04:00 +20°C° 0 mm 1 mps 746 mmHg 96%
05:00 +20°C° 0 mm 2 mps 747 mmHg 92%
06:00 +21°C° 0 mm 2 mps 747 mmHg 87%
07:00 +23°C° 0 mm 2 mps 747 mmHg 83%
08:00 +24°C° 0 mm 3 mps 747 mmHg 76%
09:00 +26°C° 0 mm 3 mps 747 mmHg 70%
10:00 +27°C° 0 mm 4 mps 747 mmHg 63%
11:00 +28°C° 0 mm 4 mps 747 mmHg 60%
12:00 +28°C° 0 mm 4 mps 748 mmHg 57%
13:00 +29°C° 0 mm 5 mps 748 mmHg 54%
14:00 +28°C° 0 mm 4 mps 748 mmHg 59%
15:00 +27°C° 0 mm 4 mps 748 mmHg 64%
16:00 +26°C° 0 mm 4 mps 748 mmHg 69%
17:00 +25°C° 0.2 mm 3 mps 748 mmHg 72%
18:00 +25°C° 0.2 mm 3 mps 748 mmHg 74%
19:00 +24°C° 0.2 mm 2 mps 748 mmHg 76%
20:00 +23°C° 0.1 mm 2 mps 748 mmHg 78%
21:00 +22°C° 0.1 mm 1 mps 748 mmHg 80%
22:00 +21°C° 0.1 mm 1 mps 748 mmHg 82%
23:00 +21°C° 0 mm 1 mps 748 mmHg 82%

28 July, Wednesday

Time Temperature Precipitation Wind Pressure Humidity
00:00 +21°C° 0 mm 1 mps 748 mmHg 82%
01:00 +20°C° 0 mm 1 mps 748 mmHg 82%
02:00 +19°C° 0 mm 2 mps 748 mmHg 81%
03:00 +19°C° 0 mm 2 mps 748 mmHg 80%
04:00 +18°C° 0 mm 2 mps 748 mmHg 80%
05:00 +20°C° 0 mm 2 mps 748 mmHg 75%
06:00 +21°C° 0 mm 2 mps 748 mmHg 71%
07:00 +24°C° 0 mm 3 mps 748 mmHg 67%
08:00 +25°C° 0 mm 3 mps 749 mmHg 61%
09:00 +27°C° 0 mm 3 mps 749 mmHg 56%
10:00 +28°C° 0 mm 4 mps 749 mmHg 50%
11:00 +29°C° 0 mm 4 mps 748 mmHg 49%
12:00 +29°C° 0 mm 4 mps 748 mmHg 47%
13:00 +30°C° 0 mm 4 mps 748 mmHg 46%
14:00 +29°C° 0 mm 3 mps 748 mmHg 49%
15:00 +29°C° 0 mm 3 mps 748 mmHg 52%
16:00 +28°C° 0 mm 3 mps 748 mmHg 55%
17:00 +27°C° 0 mm 3 mps 748 mmHg 58%
18:00 +26°C° 0 mm 4 mps 748 mmHg 60%
19:00 +23°C° 0 mm 4 mps 748 mmHg 63%
20:00 +22°C° 0 mm 4 mps 748 mmHg 66%
21:00 +22°C° 0 mm 4 mps 749 mmHg 69%
22:00 +21°C° 0 mm 4 mps 749 mmHg 71%
23:00 +20°C° 0.1 mm 4 mps 749 mmHg 74%

29 July, Thursday

Time Temperature Precipitation Wind Pressure Humidity
00:00 +20°C° 0.1 mm 3 mps 749 mmHg 77%
01:00 +19°C° 0.1 mm 3 mps 749 mmHg 80%
02:00 +19°C° 0.1 mm 3 mps 749 mmHg 84%
03:00 +18°C° 0.1 mm 3 mps 749 mmHg 89%
04:00 +17°C° 0.1 mm 3 mps 749 mmHg 93%
05:00 +18°C° 0 mm 3 mps 749 mmHg 87%
06:00 +19°C° 0 mm 3 mps 750 mmHg 81%
07:00 +20°C° 0 mm 3 mps 750 mmHg 75%
08:00 +22°C° 0 mm 3 mps 750 mmHg 69%
09:00 +24°C° 0 mm 3 mps 750 mmHg 63%
10:00 +25°C° 0 mm 3 mps 750 mmHg 57%
11:00 +26°C° 0 mm 3 mps 750 mmHg 54%
12:00 +27°C° 0 mm 2 mps 750 mmHg 50%
13:00 +28°C° 0 mm 2 mps 750 mmHg 47%
14:00 +28°C° 0 mm 2 mps 749 mmHg 47%
15:00 +28°C° 0 mm 2 mps 749 mmHg 46%
16:00 +28°C° 0 mm 2 mps 749 mmHg 46%
17:00 +27°C° 0 mm 2 mps 749 mmHg 50%
18:00 +26°C° 0 mm 2 mps 748 mmHg 53%
19:00 +25°C° 0 mm 2 mps 748 mmHg 56%
20:00 +25°C° 0 mm 2 mps 748 mmHg 57%
21:00 +24°C° 0 mm 2 mps 748 mmHg 57%
22:00 +24°C° 0 mm 2 mps 748 mmHg 58%
23:00 +22°C° 0 mm 3 mps 748 mmHg 59%

30 July, Friday

Time Temperature Precipitation Wind Pressure Humidity
00:00 +22°C° 0 mm 3 mps 748 mmHg 61%
01:00 +21°C° 0 mm 3 mps 747 mmHg 62%
02:00 +21°C° 0 mm 3 mps 747 mmHg 64%
03:00 +21°C° 0 mm 3 mps 747 mmHg 65%
04:00 +20°C° 0 mm 3 mps 747 mmHg 67%
05:00 +21°C° 0 mm 3 mps 747 mmHg 66%
06:00 +22°C° 0 mm 4 mps 747 mmHg 65%
07:00 +23°C° 0 mm 5 mps 747 mmHg 65%
08:00 +26°C° 0 mm 5 mps 746 mmHg 60%
09:00 +27°C° 0 mm 5 mps 746 mmHg 55%
10:00 +28°C° 0 mm 6 mps 746 mmHg 51%
11:00 +29°C° 0 mm 6 mps 745 mmHg 48%
12:00 +32°C° 0 mm 6 mps 745 mmHg 45%
13:00 +33°C° 0 mm 7 mps 744 mmHg 43%
14:00 +32°C° 0.1 mm 6 mps 744 mmHg 46%
15:00 +30°C° 0.1 mm 6 mps 744 mmHg 50%
16:00 +30°C° 0.1 mm 6 mps 744 mmHg 53%
17:00 +28°C° 0.8 mm 5 mps 744 mmHg 62%
18:00 +26°C° 0.8 mm 4 mps 744 mmHg 71%
19:00 +24°C° 0.8 mm 3 mps 744 mmHg 79%
20:00 +22°C° 0.3 mm 3 mps 744 mmHg 83%
21:00 +21°C° 0.3 mm 3 mps 744 mmHg 86%
22:00 +20°C° 0.3 mm 2 mps 745 mmHg 90%
23:00 +20°C° 0 mm 2 mps 745 mmHg 90%
Show more